Location: Decatur Area Astronomy Club
(40.0275°N, 88.7810°W)
Time: 06:38:35
(UTC-06:00)

Daily predictions for brighter satellites

Satellite Brightness Start Highest point End
(mag) Time Altitude Azimuth Time Altitude Azimuth Time Altitude Azimuth
Cosmos 2263 4.3 17:18:28 10° NNW 17:24:13 66° ENE 17:29:54 10° SSE
CORIOLIS 4.1 17:22:05 10° SSE 17:27:24 74° ENE 17:32:45 10° N
Cosmos 2369 Rocket 2.4 17:24:08 10° NNW 17:29:50 81° WSW 17:35:31 10° SSE
SL-8 Rocket 4.2 17:24:47 10° N 17:30:48 50° ENE 17:36:48 10° SSE
Cosmos 1656 Rocket 4.4 17:28:54 10° N 17:33:43 31° ENE 17:38:33 10° ESE
IRAS Rocket 4.2 17:30:01 10° SSE 17:35:33 83° ENE 17:41:10 10° NNW
Cosmos 2218 Rocket 4.2 17:29:55 10° N 17:35:48 45° ENE 17:41:38 10° SSE
Cosmos 44 Rocket 4.2 17:31:54 10° S 17:35:50 28° ESE 17:39:50 10° NE
Cosmos 1300 3.0 17:32:11 10° N 17:35:51 42° E 17:39:29 10° SSE
CSL-04 Rocket 4.1 17:30:37 10° S 17:36:09 73° WSW 17:41:41 10° NNW
NOSS 3-4 (A) 4.3 17:31:02 10° NNW 17:37:30 38° NE 17:44:23 10° ESE
SeaSat 1 3.6 17:32:45 10° S 17:37:30 49° WSW 17:42:18 10° NW
NOSS 3-4 (C) 4.3 17:31:09 10° NNW 17:37:36 38° NE 17:44:28 10° ESE
Cosmos 1943 Rocket 2.1 17:35:26 10° NNW 17:41:04 83° ENE 17:46:37 10° SSE
ERS-2 3.5 17:39:15 10° ESE 17:41:51 19° ENE 17:44:28 10° NNE
SL-14 R/B 3.3 17:38:52 10° S 17:42:47 60° E 17:46:42 10° NNE
COSMO-SKYMED 1 2.8 17:39:48 10° NNE 17:44:01 49° E 17:48:13 10° S
Cosmos 1484 Rocket 4.4 17:43:22 10° SSW 17:46:56 39° W 17:50:29 10° NNW
CZ-4 R/B 1.8 17:45:30 10° S 17:49:42 74° W 17:53:58 10° NNW
Cosmos 1076 Rocket 3.5 17:46:45 10° S 17:51:06 83° E 17:55:29 10° N
Cosmos 2228 Rocket 4.4 17:50:10 10° NNE 17:53:32 20° ENE 17:56:52 10° ESE
SL-24 R/B - RUBIN 2 4.0 17:50:24 10° NNW 17:54:40 39° NE 17:58:43 10° ESE
Meteor 2-8 Rocket 4.5 17:49:43 10° S 17:55:44 61° E 18:01:48 10° NNE
USA 116 4.4 17:53:11 10° N 17:57:28 69° WNW 18:02:16 10° SSW
ALOS 2.2 17:56:17 10° SSE 18:00:52 62° ENE 18:05:30 10° N
FENGYUN 3A 3.6 17:56:49 10° SSE 18:02:06 63° ENE 18:07:23 10° N
MONITOR-E 4.0 18:00:35 10° SSE 18:03:35 63° ENE 18:06:37 10° N
TSX-5 3.2 18:02:57 10° SSW 18:06:04 79° ESE 18:09:01 13° NNE
Cosmos 1328 Rocket 4.1 18:04:26 10° N 18:08:27 34° ENE 18:12:25 10° SE
Cosmos 1315 Rocket 2.7 18:06:26 10° S 18:10:23 89° ENE 18:14:19 10° N
Meteor 1-11 4.3 18:05:45 10° SSE 18:11:07 52° E 18:16:35 10° NNE
Cosmos 1346 Rocket 3.1 18:08:02 10° N 18:11:43 39° ENE 18:15:22 10° SSE
Cosmos 1726 4.2 18:09:11 10° NNW 18:12:26 30° W 18:15:39 10° SSW
Cosmos 2366 rocket 3.9 18:06:39 10° N 18:12:55 81° E 18:19:06 10° S
COSMOS 2406 3.6 18:14:40 10° S 18:20:01 42° ESE 18:23:40 19° NE
H-2A R/B 3.1 18:17:07 10° SE 18:20:41 41° ENE 18:24:19 10° N
Cosmos 1766 Rocket 3.6 18:16:46 10° S 18:21:05 82° W 18:25:26 10° N
FengYun 1-2 T 4.4 18:22:12 10° SE 18:27:38 52° ENE 18:33:04 10° N
SPOT 3 Rocket 3.5 18:23:07 10° SSE 18:28:16 89° ENE 18:33:27 10° NNW
Nadezhda 3 Rocket 4.1 18:23:41 10° SSE 18:29:47 54° E 18:35:57 10° NNE
Tiangong 1 1.0 18:29:56 10° WNW 18:32:00 53° NW 18:32:00 53° NW
Cosmos 1455 2.4 18:30:21 10° N 18:34:04 44° E 18:37:43 10° SSE
Cosmos 1777 Rocket 3.9 18:31:57 10° NNW 18:37:14 90° ENE 18:42:29 10° SSE
CZ-4C R/B 4.1 18:35:47 10° SE 18:35:51 10° SE 18:35:51 10° SE
USA 81 4.1 18:35:08 10° SSE 18:40:16 55° E 18:45:25 10° NNE
Cosmos 371 Rocket 3.4 18:38:42 10° S 18:43:19 49° ESE 18:44:15 43° ENE
Cosmos 1151 Rocket 3.0 18:42:10 10° N 18:46:29 57° E 18:50:48 10° SSE
Cosmos 44 3.9 18:42:51 10° SW 18:47:00 47° NW 18:49:36 22° N
EO 1 Del DPAF 4.3 18:44:22 10° N 18:48:02 44° WNW 18:51:41 10° SW
Cosmos 2208 Rocket 4.3 18:46:20 10° S 18:51:09 42° ESE 18:51:09 42° ESE
OAO 3 Rocket 4.0 18:48:28 10° WSW 18:52:53 40° S 18:54:22 31° SSE
Cosmos 1626 3.8 18:54:10 10° SW 18:57:33 33° WNW 19:00:57 10° NNW
Cosmos 1934 Rocket 4.2 18:52:49 10° N 18:58:54 46° ENE 19:00:15 40° ESE
BREEZE-M DEB (TANK) 3.6 18:57:26 10° W 19:00:16 23° NNW 19:00:16 23° NNW
GEOS 3 Rocket 3.6 18:59:25 49° ESE 19:00:36 63° NE 19:05:55 10° NNW
Cosmos 1703 4.1 18:58:54 10° SSW 19:02:45 50° W 19:05:23 19° N
Cosmos 2058 3.3 19:02:11 10° SSW 19:06:18 61° W 19:08:12 30° N
Cosmos 2098 Rocket 4.2 19:01:32 10° NNW 19:06:46 63° W 19:13:16 10° S
Cosmos 1515 Rocket 3.9 19:09:16 10° NNW 19:13:33 61° W 19:17:48 10° S
Cosmos 2239 Rocket 4.3 19:08:39 10° N 19:14:49 82° E 19:20:58 10° S
ERS-2 4.3 19:12:09 10° SSW 19:15:19 27° W 19:18:30 10° NW
Cosmos 2151 4.0 19:16:08 10° SSW 19:20:13 46° W 19:21:50 30° NNW
Cosmos 1500 Rocket 4.4 19:21:20 10° SSW 19:25:40 49° W 19:26:41 41° NW
Cosmos 1570 Rocket 4.0 19:21:49 10° SSW 19:27:08 79° WNW 19:27:13 79° WNW
Lacrosse 5 3.8 19:31:33 10° SSW 19:33:08 19° S 19:33:08 19° S
